Location: St. Louis
(38.6270°N, 90.1994°W)
Time: 15:41:13
(UTC-06:00)

Oscar 11 - Visible Passes

Search period start: 22 January 2022 00:00
Search period end: 01 February 2022 00:00
Orbit: 611 x 625 km, 97.6° (Epoch: 22 January)

Date Brightness Start Highest point End Pass type
(mag) Time Alt. Az. Time Alt. Az. Time Alt. Az.
22 Jan 8.5 04:48:24 10° NNE 04:52:25 37° E 04:56:24 10° SSE visible
22 Jan 8.4 06:25:20 10° NNW 06:28:13 18° WNW 06:31:06 10° WSW visible
23 Jan 7.5 05:05:01 10° NNE 05:09:16 59° E 05:13:30 10° S visible
23 Jan 8.8 06:43:15 10° NW 06:44:51 12° WNW 06:46:25 10° W visible
24 Jan 6.9 05:21:45 10° N 05:26:05 86° W 05:30:23 10° SSW visible
24 Jan 10.6 17:53:58 10° WSW 17:55:11 11° W 17:56:24 10° WNW visible
25 Jan 10.2 04:04:55 10° ENE 04:06:26 12° E 04:07:57 10° ESE visible
25 Jan 7.1 05:38:38 10° N 05:42:52 54° WNW 05:47:03 10° SSW visible
26 Jan 9.7 04:20:24 10° NE 04:23:23 18° E 04:26:23 10° SE visible
26 Jan 7.6 05:55:40 10° N 05:59:35 35° WNW 06:03:29 10° SW visible
27 Jan 9.0 04:36:35 10° NE 04:40:18 28° E 04:44:01 10° SSE visible
27 Jan 8.1 06:12:51 10° NNW 06:16:16 23° WNW 06:19:41 10° WSW visible
28 Jan 8.2 04:53:03 10° NNE 04:57:11 43° E 05:01:17 10° S visible
28 Jan 8.6 06:30:20 10° NNW 06:32:55 16° WNW 06:35:29 10° WSW visible
29 Jan 7.3 05:09:42 10° NNE 05:14:01 70° E 05:18:18 10° S visible
30 Jan 6.9 05:26:29 10° N 05:30:48 75° WNW 05:35:06 10° SSW visible
31 Jan 10.1 04:09:02 10° ENE 04:11:13 14° E 04:13:24 10° ESE visible
31 Jan 7.2 05:43:24 10° N 05:47:34 47° WNW 05:51:42 10° SSW visible
